Date String (YYYY-MM-DD hh:mm:ss) UTC,Instrument flags,absolute air pressure of the measurement (hPa),sample flow rate (lpm),inlet stack bypass flow (lpm),air temperature of the measurement (°C),ambient temperature measured by the external sensor (°C),aerosol sample conditioner tube jacket temperature (°C),OPC LED temperature (°C),internal box temperature (°C),relative humidity of the measurement (%),span deviation,mass concentration of particles derived from Lorenz-Mie calculation of OPC scattering (μg/m³),mass concentration of particles derived from Lorenz-Mie calculation of OPC scattering (μg/m³),mass concentration of particles derived from Lorenz-Mie calculation of OPC scattering (μg/m³)
DateTimeUTC,F1_M11,P_M11,Q1_M11,Q2_M11,T1_M11,T2_M11,T3_M11,T4_M11,T5_M11,U1_M11,ZSPAN_M11,X0_M11,X2_M11,X1_M11
2023-07-10 21:00:00,SystemResetWarning,0829.8,4.98,000.00,028.7,026.6,000.0,036.9,030.3,27.4,0000.0,0012.37,0004.67,0003.82
2023-07-10 21:01:00,SystemResetWarning,0829.8,5.00,000.00,028.6,025.0,000.0,036.8,030.0,28.0,0000.0,0012.52,0004.68,0003.83
2023-07-10 21:02:00,SystemResetWarning,0829.7,5.02,000.00,028.5,024.6,000.0,036.7,029.9,28.4,0000.0,0012.75,0004.67,0003.83
2023-07-10 21:03:00,SystemResetWarning,0829.8,5.00,000.00,028.4,024.9,000.0,036.7,029.8,28.5,0000.0,0013.20,0004.64,0003.84
2023-07-10 21:04:00,SystemResetWarning,0829.7,5.00,000.00,028.4,025.3,000.0,036.8,029.8,29.2,0000.0,0013.15,0004.64,0003.83
2023-07-10 21:05:00,SystemResetWarning,0829.8,5.00,000.00,028.4,025.8,000.0,036.8,029.9,28.8,0000.0,0012.80,0004.63,0003.83
2023-07-10 21:06:00,SystemResetWarning,0829.8,5.00,000.00,028.4,026.2,000.0,036.8,030.0,28.9,0000.0,0011.97,0004.60,0003.82
2023-07-10 21:07:00,SystemResetWarning,0829.8,5.01,000.00,028.5,026.6,000.0,036.8,030.1,28.8,0000.0,0012.23,0004.59,0003.82
2023-07-10 21:08:00,SystemResetWarning,0829.8,5.00,000.00,028.5,027.0,000.0,036.8,030.2,29.0,0000.0,0012.83,0004.57,0003.81
2023-07-10 21:09:00,SystemResetWarning,0829.8,5.00,000.00,028.6,027.3,000.0,036.9,030.3,29.7,0000.0,0012.95,0004.59,0003.81
2023-07-10 21:10:00,SystemResetWarning,0829.8,4.98,000.00,028.6,026.9,000.0,036.8,030.3,29.9,0000.0,0012.42,0004.62,0003.82
2023-07-10 21:11:00,SystemResetWarning,0829.8,5.00,000.00,028.6,025.7,000.0,036.8,030.1,30.2,0000.0,0011.39,0004.59,0003.83
2023-07-10 21:12:00,SystemResetWarning,0829.8,5.00,000.00,028.6,025.6,000.0,036.7,030.1,29.9,0000.0,0011.17,0004.61,0003.83
2023-07-10 21:13:00,SystemResetWarning,0829.8,5.01,000.00,028.5,025.8,000.0,036.8,030.0,30.3,0000.0,0011.11,0004.58,0003.83
2023-07-10 21:14:00,SystemResetWarning,0829.8,5.01,000.00,028.5,026.2,000.0,036.8,030.1,31.1,0000.0,0011.25,0004.61,0003.82
2023-07-10 21:15:00,SystemResetWarning,0829.8,5.00,000.00,028.6,026.6,000.0,036.8,030.2,31.0,0000.0,0011.93,0004.63,0003.82
2023-07-10 21:16:00,SystemResetWarning,0829.8,5.00,000.00,028.6,026.9,000.0,036.9,030.3,30.2,0000.0,0012.16,0004.66,0003.82
2023-07-10 21:17:00,SystemResetWarning,0829.8,5.00,000.00,028.6,027.2,000.0,036.9,030.4,30.6,0000.0,0012.10,0004.68,0003.82
2023-07-10 21:18:00,SystemResetWarning,0829.8,4.99,000.00,028.7,026.9,000.0,036.9,030.4,29.9,0000.0,0011.76,0004.69,0003.83
2023-07-10 21:19:00,SystemResetWarning,0829.8,4.99,000.00,028.6,025.3,000.0,036.8,030.2,30.2,0000.0,0011.65,0004.71,0003.85
2023-07-10 21:20:00,SystemResetWarning,0829.8,5.01,000.00,028.6,024.7,000.0,036.7,030.0,30.1,0000.0,0011.95,0004.71,0003.87
2023-07-10 21:21:00,SystemResetWarning,0829.8,5.01,000.00,028.5,024.9,000.0,036.7,029.8,30.1,0000.0,0012.24,0004.73,0003.87
2023-07-10 21:22:00,SystemResetWarning,0829.8,4.99,000.00,028.5,025.3,000.0,036.8,029.8,30.1,0000.0,0013.20,0004.76,0003.88
2023-07-10 21:23:00,SystemResetWarning,0829.8,5.01,000.00,028.5,025.7,000.0,036.8,029.9,30.0,0000.0,0014.37,0004.81,0003.90
2023-07-10 21:24:00,SystemResetWarning,0829.9,5.00,000.00,028.5,026.2,000.0,036.8,030.0,29.1,0000.0,0014.77,0004.87,0003.93
2023-07-10 21:25:00,SystemResetWarning,0829.9,4.99,000.00,028.5,026.6,000.0,036.8,030.1,29.6,0000.0,0015.03,0004.87,0003.96
2023-07-10 21:26:00,SystemResetWarning,0829.9,5.00,000.00,028.6,027.0,000.0,036.9,030.2,29.8,0000.0,0014.97,0004.88,0003.98
2023-07-10 21:27:00,SystemResetWarning,0829.9,5.00,000.00,028.6,027.3,000.0,036.9,030.3,28.9,0000.0,0015.72,0004.88,0004.00
2023-07-10 21:28:00,SystemResetWarning,0829.9,5.00,000.00,028.7,027.0,000.0,036.9,030.3,28.6,0000.0,0015.69,0004.91,0004.02
2023-07-10 21:29:00,SystemResetWarning,0829.9,4.99,000.00,028.6,025.5,000.0,036.8,030.2,28.4,0000.0,0015.63,0004.98,0004.04
2023-07-10 21:30:00,SystemResetWarning,0829.8,5.03,000.00,028.6,024.6,000.0,036.7,030.1,27.7,0000.0,0016.06,0005.03,0004.03
2023-07-10 21:31:00,SystemResetWarning,0829.8,4.99,000.00,028.5,024.8,000.0,036.7,029.9,28.7,0000.0,0016.24,0005.06,0004.03
2023-07-10 21:32:00,SystemResetWarning,0829.9,5.00,000.00,028.4,025.2,000.0,036.8,029.8,29.8,0000.0,0016.41,0005.02,0004.04
2023-07-10 21:33:00,SystemResetWarning,0829.9,5.01,000.00,028.4,025.6,000.0,036.8,029.9,28.4,0000.0,0015.89,0005.02,0004.04
2023-07-10 21:34:00,SystemResetWarning,0829.9,5.00,000.00,028.4,026.1,000.0,036.8,030.0,27.8,0000.0,0015.30,0005.01,0004.03
2023-07-10 21:35:00,SystemResetWarning,0829.9,5.00,000.00,028.5,026.6,000.0,036.8,030.1,27.2,0000.0,0015.43,0004.99,0004.01
2023-07-10 21:36:00,SystemResetWarning,0829.9,5.00,000.00,028.5,026.9,000.0,036.8,030.2,28.1,0000.0,0015.65,0005.00,0003.98
2023-07-10 21:37:00,SystemResetWarning,0830.0,5.00,000.00,028.6,027.2,000.0,036.9,030.3,28.3,0000.0,0015.59,0004.96,0003.96
2023-07-10 21:38:00,SystemResetWarning,0830.0,4.99,000.00,028.6,027.2,000.0,036.9,030.4,28.5,0000.0,0014.77,0004.93,0003.95
2023-07-10 21:39:00,SystemResetWarning,0829.9,4.99,000.00,028.6,025.6,000.0,036.8,030.2,28.6,0000.0,0014.42,0004.89,0003.93
2023-07-10 21:40:00,SystemResetWarning,0829.9,5.01,000.00,028.6,024.6,000.0,036.7,030.1,28.1,0000.0,0014.34,0004.89,0003.92
2023-07-10 21:41:00,SystemResetWarning,0829.9,5.01,000.00,028.5,024.7,000.0,036.7,029.9,27.9,0000.0,0013.50,0004.86,0003.92
2023-07-10 21:42:00,SystemResetWarning,0829.9,5.00,000.00,028.4,025.1,000.0,036.7,029.8,28.9,0000.0,0013.01,0004.86,0003.91
2023-07-10 21:43:00,SystemResetWarning,0829.9,5.00,000.00,028.4,025.6,000.0,036.8,029.9,27.2,0000.0,0012.98,0004.87,0003.91
2023-07-10 21:44:00,SystemResetWarning,0830.0,5.00,000.00,028.4,026.0,000.0,036.8,030.0,26.8,0000.0,0013.02,0004.84,0003.90
2023-07-10 21:45:00,SystemResetWarning,0830.0,4.99,000.00,028.5,026.5,000.0,036.8,030.1,26.8,0000.0,0012.94,0004.83,0003.89
2023-07-10 21:46:00,SystemResetWarning,0830.0,4.99,000.00,028.5,026.9,000.0,036.8,030.2,27.2,0000.0,0012.97,0004.83,0003.90
2023-07-10 21:47:00,SystemResetWarning,0830.0,5.01,000.00,028.6,027.2,000.0,036.8,030.3,26.8,0000.0,0013.80,0004.87,0003.93
2023-07-10 21:48:00,SystemResetWarning,0830.0,5.01,000.00,028.6,027.5,000.0,036.9,030.4,27.5,0000.0,0013.21,0004.90,0003.95
2023-07-10 21:49:00,SystemResetWarning,0830.0,4.98,000.00,028.7,027.0,000.0,036.8,030.4,26.8,0000.0,0013.27,0004.98,0003.96
2023-07-10 21:50:00,SystemResetWarning,0829.9,5.01,000.00,028.6,025.5,000.0,036.8,030.2,27.4,0000.0,0013.54,0005.01,0003.97
2023-07-10 21:51:00,SystemResetWarning,0829.9,5.00,000.00,028.6,025.1,000.0,036.7,030.1,26.8,0000.0,0014.14,0004.97,0003.96
2023-07-10 21:52:00,SystemResetWarning,0829.9,5.01,000.00,028.6,025.4,000.0,036.7,030.0,27.3,0000.0,0014.27,0004.96,0003.95
2023-07-10 21:53:00,SystemResetWarning,0829.9,5.00,000.00,028.5,025.8,000.0,036.8,030.0,27.0,0000.0,0014.61,0004.96,0003.97
2023-07-10 21:54:00,SystemResetWarning,0829.9,5.00,000.00,028.6,026.2,000.0,036.8,030.2,26.7,0000.0,0014.97,0004.93,0003.97
2023-07-10 21:55:00,SystemResetWarning,0829.9,5.00,000.00,028.6,026.7,000.0,036.8,030.3,26.7,0000.0,0014.73,0004.92,0003.98
2023-07-10 21:56:00,SystemResetWarning,0829.9,5.00,000.00,028.6,027.1,000.0,036.9,030.4,28.0,0000.0,0015.76,0004.91,0003.97
2023-07-10 21:57:00,SystemResetWarning,0829.9,4.99,000.00,028.7,026.7,000.0,036.8,030.4,30.0,0000.0,0016.15,0004.90,0003.97
2023-07-10 21:58:00,SystemResetWarning,0829.8,4.99,000.00,028.7,025.2,000.0,036.8,030.3,27.5,0000.0,0014.92,0004.87,0003.95
2023-07-10 21:59:00,SystemResetWarning,0829.8,5.01,000.00,028.6,024.8,000.0,036.7,030.2,26.5,0000.0,0014.25,0004.88,0003.94
